Regional Weather Roundup
Issued by NWS

Home | Current Version | Previous Version | Graphics & Text | Print | Product List | Glossary Off
Versions: 1 2 3 4 5 6 7 8 9 10 11 12 13 14 15 16 17 18 19 20 21 22 23 24 25 26 27 28 29 30 31 32 33 34 35 36 37 38 39 40 41 42 43 44 45 46 47 48 49 50

589
ASUS43 KDMX 010110
RWRIA

WEATHER ROUNDUP FOR IOWA
NATIONAL WEATHER SERVICE DES MOINES IA
800 PM CDT WED AUG 31 2016

NOTE: "FAIR" INDICATES FEW OR NO CLOUDS BELOW 12,000 FEET WITH NO
SIGNIFICANT WEATHER AND/OR OBSTRUCTIONS TO VISIBILITY.

* - THESE STATIONS ARE NOT NWS STATIONS...THUS NOT UNDER NWS
QUALITY CONTROL.  THEY ALSO DO NOT REPORT WEATHER SUCH
AS PRECIPITATION OR FOG.

IAZ001>003-012>014-020>022-031>034-043>046-010200-
   NORTHWEST IOWA

CITY           SKY/WX    TMP DP  RH WIND       PRES   REMARKS
CARROLL *      CLEAR     68  61  77 N6        30.15S
CHEROKEE *     CLEAR     69  63  82 CALM      30.16S
DENISON *      CLEAR     72  61  68 NE6       30.14S
LE MARS *      CLEAR     75  61  60 CALM      30.17S HAZE
ORANGE CITY *  CLEAR     75  63  64 CALM      30.18R
SHELDON *      CLEAR     70  64  83 NE3       30.17R
SIOUX CITY     CLEAR     75  62  64 SE3       30.16R
SPENCER        CLEAR     70  61  73 NE6       30.18R
STORM LAKE *   CLEAR     68  61  77 NE6       30.18S
$$

IAZ055>058-069>071-079>083-090>094-010200-
   SOUTHWEST IOWA

CITY           SKY/WX    TMP DP  RH WIND       PRES   REMARKS
ATLANTIC *     CLEAR     70  64  83 CALM      30.14S
AUDUBON *      CLEAR     66  63  88 CALM      30.17S
CLARINDA *       N/A     72  64  78 MISG        N/A
COUNCIL BLFS * CLEAR     70  61  73 NE6       30.15R
CRESTON *      PTCLDY    70  61  73 NE7       30.15S
HARLAN  *      CLEAR     70  63  78 N5        30.19R
LAMONI         MOCLDY    68  62  81 NE7       30.12S
RED OAK *      PTCLDY    70  64  83 MISG      30.14R
SHENANDOAH *   CLOUDY    72  64  78 CALM      30.14R
$$

IAZ047>049-059>061-072>074-084-010200-
   CENTRAL IOWA

CITY           SKY/WX    TMP DP  RH WIND       PRES   REMARKS
AMES           CLEAR     70  60  70 NE5       30.14R
ANKENY *         N/A    N/A N/A N/A MISG        N/A
BOONE *          N/A     68  59  73 NE6       30.14R
CHARITON *       N/A     68  61  77 N5        30.13R
DES MOINES     PTCLDY    73  58  59 NE6       30.13R
GRINNELL*      CLEAR     67  58  73 N3        30.14R
KNOXVILLE *    CLEAR     72  57  60 NE6       30.11S
MARSHALLTOWN   CLEAR     68  62  81 N5        30.13R
NEWTON *       CLEAR     68  59  73 N6        30.12S
PELLA *        CLEAR     67  61  79 CALM      30.13R
PERRY *          N/A     67  65  94 CALM      30.15R
$$

IAZ004>006-015-016-023>025-035-036-010200-
   NORTH CENTRAL IOWA

CITY           SKY/WX    TMP DP  RH WIND       PRES   REMARKS
ALGONA *       CLEAR     70  61  73 N5        30.17S
ESTHERVILLE    CLEAR     66  60  81 N6        30.17S
FORT DODGE *   CLEAR     70  57  64 N3        30.17R
MASON CITY     CLEAR     65  59  81 N3        30.17S
FOREST CITY *    N/A     66  57  72 N3        30.16S
WEBSTER CITY * CLEAR     68  63  83 N3        30.14R
IOWA FALLS *     N/A     70  59  67 N3        30.16S
$$

IAZ007>011-017>019-026>030-037>042-050>054-066-010200-
   NORTHEAST IOWA

CITY           SKY/WX    TMP DP  RH WIND       PRES   REMARKS
CEDAR RAPIDS   CLEAR     68  56  65 N8        30.11R
CHARLES CITY * CLEAR     64  57  77 N6        30.15S
CLINTON *      CLEAR     66  60  81 N7        30.11R
DECORAH *      CLEAR     68  57  68 CALM      30.14R
DUBUQUE        CLEAR     67  56  67 NE6       30.12S
MONTICELLO *   CLEAR     68  61  77 CALM      30.11S
OELWEIN *      CLEAR     66  57  72 N6        30.14S
WATERLOO       CLEAR     65  55  70 N7        30.12S
$$

IAZ064-065-067-068-078-010200-
   EAST CENTRAL IOWA

CITY           SKY/WX    TMP DP  RH WIND       PRES   REMARKS
DAVENPORT      CLEAR     65  59  81 N6        30.10S
IOWA CITY      CLEAR     71  57  61 NE6       30.12R
MT. PLEASANT * CLEAR     69  61  75 N7        30.10S
MUSCATINE *    CLEAR     68  61  77 N3        30.10R
QUAD CITIES    CLEAR     73  57  57 N6        30.09R
$$

IAZ062-063-075>077-085>089-095>099-010200-
   SOUTHEAST IOWA

CITY           SKY/WX    TMP DP  RH WIND       PRES   REMARKS
BURLINGTON     CLOUDY    67  60  78 N8        30.08S
FAIRFIELD *    CLOUDY    66  59  77 N6        30.11R
FORT MADISON * PTCLDY    66  61  82 CALM      30.10R
KEOKUK *       CLOUDY    73  61  64 NE5       30.08R
OSKALOOSA *      N/A     67  60  79 N3        30.12R
OTTUMWA        PTCLDY    68  59  73 N6        30.11R
WASHINGTON *   CLEAR     68  61  77 NE5       30.12R
$$

ABBREVIATIONS USED IN REMARKS
   TC - TEMPERATURES IN CELSIUS
  WCI - WIND CHILL INDEX
   HX - HEAT INDEX
  VSB - VISIBILITY
$$





USA.gov is the U.S. government's official web portal to all federal, state and local government web resources and services.